Temperature
19 19 19 18 18 18 18 18 18 18 18 18 17 17 17 17 17 17 16 16 16 16 16 16 16 16 16 16 16 16 16 16 16 16 16 16 16 16 16 15 15 15 15
19 19 19 18 18 18 18 18 17 17 17 17 17 17 17 17 17 16 16 16 16 15 15 15 16 16 16 16 16 15 16 16 16 16 16 16 16 15 15 15 15 15 15
19 19 18 18 18 18 17 17 17 17 17 16 16 16 16 16 16 16 16 15 15 15 15 15 15 15 15 15 15 15 15 15 15 15 15 15 15 15 15 15 15 15 15
19 19 18 18 17 17 17 17 17 17 16 16 16 16 16 16 16 16 16 15 15 15 15 15 15 15 15 15 15 15 15 15 15 15 15 15 15 15 15 14 14 14 14
19 18 18 17 17 17 16 17 17 16 16 16 16 16 16 15 15 15 15 15 15 15 14 14 14 14 14 14 14 14 14 14 14 14 14 14 14 14 14 14 14 14 14
18 18 17 17 17 16 16 16 16 16 16 16 16 16 15 15 15 15 15 15 14 14 14 14 14 14 14 14 14 14 14 14 14 14 14 14 14 14 14 14 13 13 13
17 17 17 16 16 16 16 16 16 16 15 15 15 15 15 15 15 15 15 15 14 14 14 14 14 14 14 14 14 14 14 14 14 13 13 13 13 13 13 13 13 13 13
17 17 16 16 16 16 16 15 15 15 15 15 15 15 15 15 15 15 14 14 14 14 14 14 14 14 14 13 13 13 13 13 13 13 13 13 13 13 13 13 13 13 13
17 16 16 16 16 15 15 15 14 14 14 14 14 14 14 15 14 14 14 14 14 14 14 13 13 13 13 13 13 13 13 13 13 13 13 13 13 13 13 13 13 13 13
16 16 16 15 15 15 15 14 14 14 14 14 14 14 14 14 14 14 14 14 14 13 13 13 13 13 13 13 13 13 13 13 13 13 13 13 13 13 13 13 13 12 12
16 15 15 15 15 15 15 14 14 14 14 14 14 14 14 14 14 14 14 13 13 13 13 13 13 13 13 13 13 13 13 13 13 13 13 12 13 13 13 12 12 12 12
15 15 15 15 14 14 14 14 14 14 14 14 14 14 14 14 13 13 13 13 13 12 12 12 12 12 13 13 12 12 12 12 12 12 12 12 12 12 12 12 12 12 12
15 15 15 14 14 14 14 14 14 14 14 13 13 13 13 13 13 13 13 13 12 12 12 12 12 12 12 12 12 12 12 12 12 12 12 12 12 12 12 12 12 12 12
15 14 14 14 14 14 14 14 13 13 13 13 13 13 13 13 13 12 12 12 12 12 12 12 12 12 12 12 12 12 12 12 11 12 12 12 12 12 12 12 12 12 12
14 14 14 14 14 14 14 14 13 13 13 13 13 13 12 12 12 12 12 12 11 11 11 11 11 11 12 12 12 12 12 11 11 11 11 11 11 11 12 12 11 11 11
14 14 14 14 14 14 13 13 13 13 13 13 13 12 12 12 12 12 12 11 11 11 11 11 11 11 11 11 11 11 11 11 11 11 11 11 11 11 11 11 11 11 11
14 14 14 14 13 13 13 13 13 13 13 13 12 12 12 12 11 11 11 11 11 11 11 11 11 11 11 11 11 11 11 11 11 11 11 11 11 11 11 11 11 11 11
13 14 13 13 13 13 13 13 13 12 12 12 12 12 11 11 11 11 11 11 11 11 11 10 10 10 10 10 10 10 10 10 10 10 10 10 10 11 11 11 10 11 11
13 13 13 13 13 13 13 13 12 12 12 12 11 11 11 11 11 11 11 10 10 10 10 10 10 10 10 10 10 10 10 10 10 10 10 10 10 10 10 10 10 10 10
13 13 13 13 13 13 13 12 12 12 12 11 11 11 11 11 10 10 10 10 10 10 10 10 10 10 10 10 10 10 10 10 10 10 10 10 10 10 10 10 10 10 10
13 13 13 13 13 13 12 12 12 12 11 11 11 11 11 10 10 10 10 10 9 9 9 9 9 9 9 9 9 9 9 9 9 9 9 9 9 9 9 9 9 9 9
13 13 13 12 12 12 12 12 11 11 11 11 11 11 10 10 10 10 9 9 9 9 9 9 9 8 9 9 9 9 9 9 9 9 9 9 9 9 9 9 9 9 9
13 13 12 12 12 12 12 12 11 11 11 11 11 10 10 10 10 9 9 9 9 9 9 8 8 8 8 8 8 8 8 8 8 8 8 8 8 8 8 8 9 9 9
13 12 12 12 12 12 11 11 11 11 11 10 10 10 10 9 9 9 9 9 8 8 8 8 8 8 8 8 8 8 8 8 8 8 8 8 8 8 8 8 8 8 8
12 12 12 12 12 12 11 11 11 11 10 10 10 10 9 9 9 9 8 8 8 8 8 8 7 7 7 7 7 7 7 7 7 7 8 8 8 8 7 7 8 8 8
12 12 12 12 11 11 11 11 11 10 10 10 9 9 9 9 9 9 8 8 8 7 7 7 7 7 7 7 7 7 7 7 7 7 7 7 7 7 7 7 7 7 7
Wind_Speed
4 3 2 2 2 1 0 1 1 2 2 1 1 1 1 1 1 1 1 1 1 2 2 2 2 3 4 4 3 3 2 1 2 2 1 1 0 1 1 3 3 4 5
4 3 2 1 1 1 1 1 1 1 1 1 1 1 1 1 1 1 2 2 2 2 2 2 3 3 3 3 3 4 3 2 2 3 3 2 1 1 1 3 3 2 2
4 3 3 2 1 1 1 1 1 1 1 1 1 1 1 1 1 1 2 2 2 2 2 2 2 3 3 3 3 3 3 3 2 3 3 2 1 1 1 2 3 2 3
4 3 3 3 2 2 2 2 2 2 2 2 2 1 1 1 2 3 2 2 2 2 1 1 2 2 2 3 3 3 3 3 3 3 3 2 1 1 1 1 2 2 3
4 3 3 3 3 3 3 3 3 3 2 2 2 2 2 1 2 3 3 2 1 2 2 2 2 1 2 3 3 3 3 3 3 3 3 3 2 2 2 2 3 2 3
4 3 3 3 3 3 2 3 3 2 2 2 2 2 2 2 4 5 3 3 2 1 2 3 2 1 1 2 4 4 4 3 3 3 3 3 4 3 2 3 3 3 3
4 4 4 4 4 3 3 3 2 2 2 2 2 2 2 2 3 3 4 3 3 2 3 3 5 3 2 2 4 4 5 5 5 4 5 5 4 4 4 4 4 4 5
4 4 3 3 3 2 3 3 2 2 2 2 2 2 1 2 2 2 4 3 2 2 2 3 3 4 4 4 4 3 4 4 5 4 4 5 5 5 5 5 6 5 5
3 3 3 2 2 2 2 2 2 2 2 2 2 1 1 1 2 2 3 2 2 2 2 2 3 2 4 5 3 4 4 5 6 5 6 7 8 8 6 4 5 5 5
3 2 2 2 2 2 1 2 2 2 2 2 2 2 1 1 1 2 3 3 2 2 1 1 3 3 4 5 4 4 5 6 6 6 5 5 5 6 7 6 5 5 4
3 3 2 2 1 0 1 1 1 2 2 2 2 2 1 1 1 2 3 2 3 3 2 1 1 2 3 4 5 4 6 7 6 5 5 4 4 4 4 4 4 4 4
3 2 2 1 1 1 1 1 1 2 2 3 2 2 0 1 2 1 2 3 4 4 4 3 3 4 5 6 5 6 8 7 5 4 4 4 3 4 3 3 3 4 4
2 1 1 1 1 1 1 2 2 2 2 2 2 2 2 2 2 2 2 4 5 3 4 6 7 6 6 5 7 8 6 4 4 5 4 4 3 3 2 2 3 2 2
1 1 0 0 1 1 1 2 2 2 3 3 3 3 3 3 3 4 4 3 4 4 4 6 7 7 6 6 6 4 3 3 4 4 4 4 3 3 3 3 3 2 2
1 1 1 1 1 1 1 2 2 2 2 2 3 3 3 3 4 3 3 4 4 5 5 4 4 3 3 3 3 2 2 2 3 4 3 3 4 3 3 3 2 2 2
1 1 2 1 1 1 1 2 5 3 2 2 2 2 3 3 4 6 6 6 6 5 4 5 5 4 4 3 3 3 2 2 3 3 3 3 3 3 3 3 3 2 2
1 1 1 1 1 2 1 1 1 2 2 1 1 2 1 3 5 6 7 8 8 5 3 5 4 4 4 4 3 3 3 3 3 3 3 3 3 3 2 3 3 2 2
2 1 2 1 2 2 1 1 1 1 2 2 2 2 3 4 5 7 7 5 4 3 3 3 4 4 4 4 3 3 3 3 3 3 3 3 3 3 3 2 2 2 2
1 1 1 2 2 1 2 2 2 2 2 1 1 2 3 4 4 5 4 3 4 4 3 3 4 4 4 3 3 3 3 3 3 3 3 3 3 3 3 3 2 2 2
1 1 2 3 2 2 1 2 2 2 2 2 2 2 2 3 3 3 2 3 4 4 4 4 4 5 4 4 4 4 4 3 4 3 3 3 3 3 4 4 3 2 2
1 1 2 3 2 2 2 2 2 3 3 3 2 2 1 2 3 3 3 3 3 4 4 4 4 5 5 4 4 4 4 4 4 4 4 4 5 4 3 3 3 3 2
2 1 1 1 2 2 2 2 3 2 3 3 2 1 1 2 3 3 3 3 4 3 3 4 4 4 4 5 5 5 5 5 5 5 4 5 4 4 4 4 3 3 2
2 2 1 1 2 1 2 2 2 2 3 3 2 2 1 2 3 3 4 4 4 4 3 3 3 4 4 4 4 5 5 5 6 5 5 5 5 4 4 4 4 3 3
2 2 1 1 2 2 2 2 2 2 3 3 3 3 2 2 3 4 4 4 3 3 3 3 3 5 6 5 5 4 5 6 7 6 7 5 5 4 4 4 4 3 2
1 2 2 2 2 2 2 2 3 3 2 2 3 2 3 3 3 3 3 3 3 3 3 3 2 3 5 6 6 5 6 6 7 7 6 5 5 4 4 4 4 3 3
2 2 3 2 2 2 2 2 2 2 2 2 2 2 2 3 2 2 2 3 3 3 3 3 3 5 5 6 7 7 6 6 7 9 7 4 4 4 4 3 4 4 3
Wind_Direction
156 154 144 145 149 147 61 348 360 13 22 9 353 356 21 35 8 343 336 348 328 321 324 2 354 353 348 344 342 328 315 313 297 299 304 329 238 259 218 245 240 211 206
143 137 127 116 128 132 94 13 22 36 29 5 351 342 346 41 34 2 333 335 328 332 338 3 354 354 350 342 338 331 326 313 288 289 296 287 278 276 237 256 270 262 215
130 133 121 105 77 53 58 33 7 19 12 5 354 347 346 16 12 347 326 319 323 332 342 1 350 349 339 336 335 331 324 324 303 290 288 297 290 319 332 287 294 296 283
106 103 96 83 61 49 36 34 31 28 29 12 352 347 356 28 351 333 315 305 323 326 342 347 328 329 335 328 325 334 326 325 314 299 296 296 293 321 318 291 290 290 292
90 87 87 80 69 57 40 36 36 25 24 16 343 344 333 346 343 336 311 304 295 298 319 319 318 21 31 342 332 333 329 322 315 310 301 303 310 334 323 299 299 302 292
88 81 75 63 59 52 36 36 29 24 18 3 337 345 346 341 9 24 7 327 321 319 317 312 304 318 336 317 309 308 306 300 310 304 303 303 304 308 306 300 296 301 298
81 73 70 61 58 42 26 40 27 18 8 347 343 353 14 359 7 7 349 325 332 336 325 318 317 339 7 331 301 285 286 276 263 270 283 288 290 300 303 299 298 293 286
82 77 78 68 60 45 38 31 13 3 347 342 329 326 327 337 8 348 325 296 303 311 314 315 319 329 334 333 306 307 301 296 275 260 261 269 280 289 286 276 279 281 276
87 82 76 65 54 48 36 17 353 342 329 310 315 346 322 321 349 342 309 282 282 286 301 331 321 328 342 338 314 306 308 306 299 293 271 261 264 273 273 280 277 278 282
78 69 64 60 41 30 32 3 350 329 313 315 331 342 336 353 13 356 321 296 304 310 320 340 10 359 344 342 323 307 302 304 308 305 300 281 268 267 261 246 258 271 281
76 66 56 54 33 79 54 360 329 315 322 317 308 303 319 84 66 23 349 326 326 321 321 315 324 334 320 304 297 291 290 299 295 287 291 286 277 269 260 247 238 240 259
80 68 47 11 325 29 11 320 299 291 294 301 300 299 330 106 82 36 341 318 319 322 320 322 321 314 304 294 287 289 296 302 295 292 292 289 285 283 281 283 271 235 222
73 57 24 356 354 13 337 322 307 305 313 321 324 325 342 29 65 43 346 325 333 321 325 330 320 302 293 288 278 286 292 295 298 297 295 295 294 295 296 297 303 278 242
82 68 350 300 326 9 343 337 345 345 337 339 340 341 354 6 15 4 343 330 319 308 311 307 291 276 272 279 287 285 276 289 294 294 300 303 308 312 304 296 286 279 279
31 356 305 309 313 324 337 352 347 20 24 353 347 346 341 342 352 351 341 332 328 330 324 303 298 298 286 287 286 284 292 311 308 303 305 320 323 316 306 300 296 294 292
350 323 317 324 342 326 329 11 29 26 54 65 25 1 1 1 335 340 338 330 322 324 321 300 300 305 312 312 308 303 300 311 309 313 312 318 318 314 316 318 311 303 304
282 280 291 303 300 295 300 318 349 11 21 3 327 352 337 312 316 316 318 321 316 315 300 293 302 313 314 314 319 326 331 334 328 318 319 322 318 318 324 321 321 327 327
267 259 288 294 288 286 298 301 296 313 335 337 311 260 268 279 291 299 306 321 319 303 291 306 320 320 315 319 326 330 330 328 325 323 330 332 331 329 326 317 320 333 330
278 351 312 301 300 312 314 303 305 317 311 298 321 313 275 278 284 294 313 320 320 334 338 339 333 327 325 328 326 324 323 315 314 316 323 330 335 336 329 323 329 337 346
206 256 291 296 293 291 308 324 332 325 315 319 326 342 348 333 329 329 326 320 326 334 336 336 330 323 329 333 330 330 329 327 326 329 335 335 334 338 341 339 343 350 350
254 211 241 288 310 342 354 346 341 332 329 325 345 31 7 322 324 323 322 322 322 319 327 330 332 337 342 340 336 335 342 346 347 346 345 340 340 340 332 335 340 342 359
314 313 285 320 350 2 344 326 321 322 320 330 1 6 287 313 332 340 334 329 326 329 346 347 346 349 346 345 345 352 356 354 347 345 340 331 329 331 333 337 345 345 343
290 300 358 22 334 327 309 317 322 326 337 340 343 356 344 327 330 338 339 338 344 343 347 356 354 348 355 357 6 13 3 350 337 334 335 329 327 332 332 330 335 342 344
293 320 348 338 313 308 314 316 320 335 344 337 340 345 333 322 330 338 338 339 346 345 351 1 1 352 0 8 6 12 12 359 343 337 335 324 317 319 328 331 328 334 338
297 318 313 303 300 312 319 320 325 336 336 334 339 339 322 319 322 331 338 344 346 349 356 1 354 352 354 1 7 16 16 7 354 341 324 317 314 317 322 318 319 327 339
286 293 300 306 318 321 308 304 315 330 328 326 333 333 320 322 337 346 350 348 339 347 345 346 353 1 2 10 17 19 18 2 348 338 321 307 311 314 317 311 319 324 328
Height
1503 1503 1503 1503 1504 1504 1503 1503 1502 1502 1501 1500 1500 1500 1500 1500 1499 1499 1499 1499 1498 1498 1498 1497 1497 1496 1496 1495 1494 1494 1494 1494 1493 1492 1492 1491 1490 1490 1489 1488 1487 1486 1485
1501 1502 1502 1503 1503 1502 1502 1501 1501 1500 1500 1499 1499 1499 1499 1498 1498 1498 1498 1497 1497 1496 1496 1495 1495 1495 1494 1493 1492 1492 1492 1491 1491 1490 1490 1489 1488 1487 1486 1485 1485 1484 1483
1501 1501 1501 1501 1501 1501 1500 1500 1500 1499 1499 1499 1498 1498 1497 1497 1497 1497 1497 1496 1496 1495 1495 1494 1493 1492 1492 1491 1490 1490 1489 1489 1489 1488 1487 1487 1486 1485 1484 1482 1483 1482 1481
1500 1500 1500 1500 1500 1500 1500 1499 1499 1498 1497 1497 1497 1497 1496 1496 1496 1496 1495 1495 1494 1494 1493 1493 1492 1491 1490 1489 1489 1488 1487 1486 1486 1486 1485 1484 1484 1483 1482 1481 1480 1480 1479
1499 1499 1499 1499 1499 1499 1498 1498 1498 1497 1496 1496 1496 1496 1495 1495 1494 1494 1493 1493 1493 1492 1492 1491 1490 1489 1488 1488 1487 1486 1485 1485 1484 1483 1483 1482 1481 1480 1479 1478 1478 1477 1476
1498 1499 1499 1499 1499 1498 1498 1497 1497 1496 1495 1495 1494 1494 1494 1493 1493 1492 1492 1491 1491 1490 1490 1489 1489 1487 1486 1486 1485 1484 1484 1483 1482 1481 1480 1479 1478 1478 1477 1476 1475 1474 1473
1498 1498 1498 1498 1498 1497 1497 1496 1495 1495 1494 1493 1492 1492 1491 1491 1491 1490 1490 1489 1489 1488 1487 1487 1487 1486 1484 1484 1483 1482 1481 1481 1480 1479 1478 1477 1476 1475 1474 1473 1472 1471 1470
1498 1498 1497 1497 1497 1497 1496 1495 1494 1493 1492 1491 1490 1490 1490 1489 1489 1488 1488 1487 1486 1486 1485 1485 1484 1483 1482 1481 1480 1479 1478 1478 1477 1476 1475 1474 1473 1472 1471 1471 1469 1468 1467
1497 1497 1497 1497 1496 1496 1495 1494 1493 1492 1491 1491 1490 1489 1488 1487 1487 1486 1486 1484 1484 1483 1483 1482 1482 1481 1480 1479 1478 1477 1475 1474 1474 1473 1472 1471 1470 1469 1468 1467 1465 1464 1463
1497 1497 1496 1496 1495 1495 1494 1494 1492 1491 1491 1490 1489 1488 1487 1486 1485 1484 1483 1482 1481 1481 1480 1480 1479 1479 1478 1477 1475 1474 1473 1472 1471 1469 1468 1467 1466 1465 1464 1463 1462 1461 1459
1496 1496 1496 1495 1495 1495 1494 1493 1492 1491 1490 1489 1488 1487 1486 1485 1484 1483 1482 1480 1479 1479 1478 1477 1477 1476 1475 1474 1473 1472 1471 1470 1468 1466 1465 1464 1463 1462 1461 1460 1459 1458 1457
1495 1495 1495 1495 1495 1494 1493 1492 1491 1490 1489 1488 1487 1486 1485 1484 1482 1481 1480 1479 1478 1477 1476 1475 1475 1473 1472 1472 1471 1469 1468 1467 1465 1464 1462 1461 1460 1458 1457 1457 1455 1455 1454
1494 1494 1494 1494 1493 1493 1492 1491 1490 1489 1489 1488 1486 1485 1484 1483 1482 1480 1479 1478 1477 1476 1474 1473 1472 1471 1470 1469 1468 1467 1466 1464 1463 1461 1460 1458 1457 1456 1455 1454 1452 1451 1451
1493 1493 1493 1493 1492 1492 1491 1491 1489 1489 1488 1487 1486 1485 1483 1482 1481 1479 1477 1476 1475 1474 1472 1471 1470 1469 1468 1467 1465 1464 1463 1462 1460 1459 1457 1456 1454 1453 1452 1451 1450 1449 1448
1492 1492 1492 1492 1491 1491 1490 1490 1489 1488 1487 1486 1484 1483 1482 1480 1479 1478 1476 1474 1473 1472 1470 1469 1468 1467 1465 1464 1463 1462 1461 1459 1458 1456 1455 1454 1452 1450 1449 1448 1448 1447 1446
1492 1492 1492 1492 1491 1490 1489 1489 1488 1487 1486 1485 1483 1482 1480 1479 1477 1476 1474 1473 1471 1470 1469 1467 1466 1465 1464 1463 1462 1460 1459 1457 1456 1455 1453 1452 1450 1449 1448 1447 1446 1445 1444
1491 1491 1491 1491 1490 1489 1488 1487 1486 1485 1484 1483 1482 1480 1479 1477 1476 1474 1473 1471 1470 1469 1467 1466 1465 1464 1463 1462 1460 1459 1457 1456 1454 1453 1452 1450 1449 1448 1447 1446 1445 1444 1443
1490 1490 1490 1490 1489 1488 1487 1486 1485 1484 1482 1481 1480 1479 1477 1476 1475 1473 1471 1470 1468 1467 1466 1465 1464 1463 1462 1460 1458 1457 1455 1454 1452 1451 1450 1449 1447 1446 1445 1445 1444 1442 1442
1489 1489 1489 1488 1488 1487 1486 1485 1484 1483 1481 1480 1478 1477 1476 1475 1473 1472 1470 1469 1468 1466 1465 1464 1462 1461 1460 1459 1457 1455 1454 1452 1451 1450 1449 1448 1446 1445 1444 1443 1442 1441 1440
1488 1488 1487 1487 1487 1486 1485 1484 1483 1482 1480 1479 1478 1476 1474 1473 1472 1471 1469 1468 1467 1465 1464 1463 1461 1460 1458 1457 1455 1454 1452 1451 1449 1448 1447 1446 1445 1444 1443 1442 1441 1440 1439
1487 1487 1486 1485 1485 1484 1483 1482 1481 1480 1479 1478 1477 1475 1473 1472 1471 1470 1468 1467 1466 1464 1463 1461 1460 1458 1457 1455 1453 1452 1450 1449 1448 1447 1445 1444 1443 1442 1441 1441 1439 1439 1438
1486 1485 1485 1484 1484 1483 1481 1481 1480 1479 1478 1477 1475 1474 1473 1471 1470 1469 1468 1466 1464 1463 1461 1459 1458 1456 1455 1453 1451 1450 1448 1447 1446 1445 1444 1442 1441 1441 1440 1439 1438 1437 1437
1484 1484 1483 1482 1482 1481 1480 1480 1479 1478 1477 1476 1475 1473 1472 1470 1469 1468 1466 1465 1463 1461 1459 1457 1456 1455 1453 1451 1450 1448 1446 1445 1444 1443 1442 1441 1440 1439 1438 1437 1436 1436 1435
1482 1482 1482 1481 1481 1480 1480 1479 1478 1477 1476 1475 1474 1472 1471 1469 1468 1467 1465 1463 1461 1459 1457 1456 1454 1453 1451 1449 1448 1446 1445 1443 1442 1441 1440 1439 1438 1437 1437 1435 1435 1434 1433
1481 1481 1480 1480 1479 1479 1478 1478 1477 1476 1475 1473 1472 1471 1470 1468 1467 1465 1463 1462 1460 1458 1456 1454 1452 1450 1449 1447 1445 1444 1442 1441 1440 1439 1438 1437 1436 1435 1435 1434 1433 1432 1432
1479 1479 1479 1478 1478 1477 1476 1476 1475 1474 1473 1472 1471 1469 1468 1467 1466 1464 1462 1460 1458 1457 1455 1453 1451 1449 1447 1445 1443 1442 1440 1439 1438 1437 1436 1435 1434 1433 1433 1432 1431 1430 1429